Location: Wapato
(46.4478°N, 120.4212°W)
Time: 22:11:07
(UTC+00:00)

Vanguard 1 Rocket - Pass Details

Date: 15 May 2026
Orbit: 656 x 4211 km, 34.3° (Epoch: 2 June)

Event Time Altitude Azimuth Distance (km) Brightness Sun altitude
Rises 06:16:44 0° 277° (W) 6,964 12.4 -20.8°
Reaches altitude 10° 06:22:31 10° 265° (W) 6,439 11.9 -21.2°
Maximum altitude 06:37:24 23° 222° (SW) 6,160 11.3 -22.2°
Enters shadow 06:48:46 17° 192° (SSW) 6,815 11.3 -22.8°
Drops below altitude 10° 06:54:31 10° 181° (S) 7,319 - -23.1°
Sets 07:02:06 0° 168° (SSE) 8,086 - -23.4°
